Time,TemperatureF,DewpointF,PressureIn,WindDirection,WindDirectionDegrees,WindSpeedMPH,WindSpeedGustMPH,Humidity,HourlyPrecipIn,Conditions,Clouds,dailyrainin,SoftwareType,DateUTC
2013-07-07 00:01:00,68.3,63.9,29.98,SSE,150,0.0,0.0,86,0.00,,,0.00,WeatherCatV1.15B25,2013-07-07 05:01:00,
2013-07-07 00:06:00,68.2,63.8,29.98,SSE,150,0.0,0.0,86,0.00,,,0.00,WeatherCatV1.15B25,2013-07-07 05:06:00,
2013-07-07 00:11:00,68.1,63.7,29.98,SSE,150,0.0,0.0,86,0.00,,,0.00,WeatherCatV1.15B25,2013-07-07 05:11:00,
2013-07-07 00:16:00,67.9,63.9,29.98,SSE,150,0.0,0.0,87,0.00,,,0.00,WeatherCatV1.15B25,2013-07-07 05:16:00,
2013-07-07 00:21:00,67.8,63.8,29.98,SSE,150,0.0,0.0,87,0.00,,,0.00,WeatherCatV1.15B25,2013-07-07 05:21:00,
2013-07-07 00:26:00,67.7,63.7,29.98,SSE,150,0.0,0.0,87,0.00,,,0.00,WeatherCatV1.15B25,2013-07-07 05:26:00,
2013-07-07 00:31:00,67.6,63.6,29.98,SSE,150,0.0,0.0,87,0.00,,,0.00,WeatherCatV1.15B25,2013-07-07 05:31:00,
2013-07-07 00:36:00,67.4,63.7,29.98,SSE,150,0.0,0.0,88,0.00,,,0.00,WeatherCatV1.15B25,2013-07-07 05:36:00,
2013-07-07 00:41:00,67.3,63.6,29.98,SSE,150,0.0,0.0,88,0.00,,,0.00,WeatherCatV1.15B25,2013-07-07 05:41:00,
2013-07-07 00:46:00,67.2,63.5,29.98,SSE,150,0.0,0.0,88,0.00,,,0.00,WeatherCatV1.15B25,2013-07-07 05:46:00,
2013-07-07 00:51:00,67.1,63.7,29.98,SSE,150,0.0,0.0,89,0.00,,,0.00,WeatherCatV1.15B25,2013-07-07 05:51:00,
2013-07-07 00:56:00,67.0,63.6,29.98,SSE,150,0.0,0.0,89,0.00,,,0.00,WeatherCatV1.15B25,2013-07-07 05:56:00,
2013-07-07 01:00:00,66.9,63.5,29.98,WSW,258,0.0,1.0,89,0.00,,,0.00,WeatherCatV1.15B25,2013-07-07 06:00:00,
2013-07-07 01:05:00,66.8,63.4,29.98,WSW,258,0.0,0.0,89,0.00,,,0.00,WeatherCatV1.15B25,2013-07-07 06:05:00,
2013-07-07 01:10:00,66.7,63.3,29.98,WSW,258,0.0,0.0,89,0.00,,,0.00,WeatherCatV1.15B25,2013-07-07 06:10:00,
2013-07-07 01:15:00,66.7,63.7,29.98,North,5,0.0,1.0,90,0.00,,,0.00,WeatherCatV1.15B25,2013-07-07 06:15:00,
2013-07-07 01:20:00,66.5,63.5,29.98,North,5,0.0,0.0,90,0.00,,,0.00,WeatherCatV1.15B25,2013-07-07 06:20:00,
2013-07-07 01:25:00,66.4,63.4,29.98,North,5,0.0,0.0,90,0.00,,,0.00,WeatherCatV1.15B25,2013-07-07 06:25:00,
2013-07-07 01:30:00,66.4,63.7,29.98,North,5,0.0,0.0,91,0.00,,,0.00,WeatherCatV1.15B25,2013-07-07 06:30:00,
2013-07-07 01:35:00,66.3,63.6,29.98,North,5,0.0,0.0,91,0.00,,,0.00,WeatherCatV1.15B25,2013-07-07 06:35:00,
2013-07-07 01:40:00,66.3,63.6,29.98,North,5,0.0,0.0,91,0.00,,,0.00,WeatherCatV1.15B25,2013-07-07 06:40:00,
2013-07-07 01:45:00,66.2,63.5,29.98,North,5,0.0,0.0,91,0.00,,,0.00,WeatherCatV1.15B25,2013-07-07 06:45:00,
2013-07-07 01:50:00,66.2,63.5,29.98,North,5,0.0,0.0,91,0.00,,,0.00,WeatherCatV1.15B25,2013-07-07 06:50:00,
2013-07-07 01:55:00,66.1,63.7,29.98,North,5,0.0,0.0,92,0.00,,,0.00,WeatherCatV1.15B25,2013-07-07 06:55:00,
2013-07-07 02:00:00,66.0,63.6,29.98,North,5,0.0,0.0,92,0.00,,,0.00,WeatherCatV1.15B25,2013-07-07 07:00:00,
2013-07-07 02:05:00,65.9,63.5,29.98,North,5,0.0,0.0,92,0.00,,,0.00,WeatherCatV1.15B25,2013-07-07 07:05:00,
2013-07-07 02:10:00,65.8,63.4,29.98,North,5,0.0,0.0,92,0.00,,,0.00,WeatherCatV1.15B25,2013-07-07 07:10:00,
2013-07-07 02:15:00,65.8,63.4,29.98,North,5,0.0,0.0,92,0.00,,,0.00,WeatherCatV1.15B25,2013-07-07 07:15:00,
2013-07-07 02:20:00,65.7,63.3,29.98,North,5,0.0,0.0,92,0.00,,,0.00,WeatherCatV1.15B25,2013-07-07 07:20:00,
2013-07-07 02:25:00,65.6,63.2,29.98,North,5,0.0,0.0,92,0.00,,,0.00,WeatherCatV1.15B25,2013-07-07 07:25:00,
2013-07-07 02:30:00,65.5,63.1,29.98,North,5,0.0,0.0,92,0.00,,,0.00,WeatherCatV1.15B25,2013-07-07 07:30:00,
2013-07-07 02:35:00,65.4,63.3,29.98,North,5,0.0,0.0,93,0.00,,,0.00,WeatherCatV1.15B25,2013-07-07 07:35:00,
2013-07-07 02:40:00,65.4,63.3,29.98,North,5,0.0,0.0,93,0.00,,,0.00,WeatherCatV1.15B25,2013-07-07 07:40:00,
2013-07-07 02:45:00,65.3,63.2,29.98,North,5,0.0,0.0,93,0.00,,,0.00,WeatherCatV1.15B25,2013-07-07 07:45:00,
2013-07-07 02:50:00,65.3,63.2,29.98,North,5,0.0,0.0,93,0.00,,,0.00,WeatherCatV1.15B25,2013-07-07 07:50:00,
2013-07-07 02:55:00,65.3,63.2,29.98,North,5,0.0,0.0,93,0.00,,,0.00,WeatherCatV1.15B25,2013-07-07 07:55:00,
2013-07-07 03:00:00,65.3,63.5,29.98,North,5,0.0,0.0,94,0.00,,,0.00,WeatherCatV1.15B25,2013-07-07 08:00:00,
2013-07-07 03:05:00,65.3,63.5,29.98,North,5,0.0,0.0,94,0.00,,,0.00,WeatherCatV1.15B25,2013-07-07 08:05:00,
2013-07-07 03:10:00,65.3,63.5,29.98,North,5,0.0,0.0,94,0.00,,,0.00,WeatherCatV1.15B25,2013-07-07 08:10:00,
2013-07-07 03:15:00,65.2,63.4,29.98,North,5,0.0,0.0,94,0.00,,,0.00,WeatherCatV1.15B25,2013-07-07 08:15:00,
2013-07-07 03:20:00,65.2,63.4,29.98,North,5,0.0,0.0,94,0.00,,,0.00,WeatherCatV1.15B25,2013-07-07 08:20:00,
2013-07-07 03:25:00,65.1,63.3,29.98,North,5,0.0,0.0,94,0.00,,,0.00,WeatherCatV1.15B25,2013-07-07 08:25:00,
2013-07-07 03:30:00,65.1,63.3,29.98,North,5,0.0,0.0,94,0.00,,,0.00,WeatherCatV1.15B25,2013-07-07 08:30:00,
2013-07-07 03:35:00,65.0,63.2,29.98,North,5,0.0,1.0,94,0.00,,,0.00,WeatherCatV1.15B25,2013-07-07 08:35:00,
2013-07-07 03:40:00,65.0,63.2,29.99,North,9,0.0,0.0,94,0.00,,,0.00,WeatherCatV1.15B25,2013-07-07 08:40:00,
2013-07-07 03:45:00,65.0,63.2,29.99,North,9,0.0,0.0,94,0.00,,,0.00,WeatherCatV1.15B25,2013-07-07 08:45:00,
2013-07-07 03:50:00,64.9,63.1,29.99,North,11,0.0,0.0,94,0.00,,,0.00,WeatherCatV1.15B25,2013-07-07 08:50:00,
2013-07-07 03:55:00,64.9,63.1,29.99,North,11,0.0,0.0,94,0.00,,,0.00,WeatherCatV1.15B25,2013-07-07 08:55:00,
2013-07-07 04:00:00,64.8,63.3,29.99,NNE,12,0.0,0.0,95,0.00,,,0.00,WeatherCatV1.15B25,2013-07-07 09:00:00,
2013-07-07 04:05:00,64.8,63.3,29.98,NNE,16,0.0,0.0,95,0.00,,,0.00,WeatherCatV1.15B25,2013-07-07 09:05:00,
2013-07-07 04:10:00,64.7,63.2,29.99,NNE,16,0.0,0.0,95,0.00,,,0.00,WeatherCatV1.15B25,2013-07-07 09:10:00,
2013-07-07 04:15:00,64.7,63.2,29.98,NNW,344,0.0,0.0,95,0.00,,,0.00,WeatherCatV1.15B25,2013-07-07 09:15:00,
2013-07-07 04:20:00,64.7,63.2,29.99,NNW,344,0.0,0.0,95,0.00,,,0.00,WeatherCatV1.15B25,2013-07-07 09:20:00,
2013-07-07 04:25:00,64.6,63.1,29.99,NNW,344,0.0,0.0,95,0.00,,,0.00,WeatherCatV1.15B25,2013-07-07 09:25:00,
2013-07-07 04:30:00,64.5,63.0,29.98,NNW,344,0.0,0.0,95,0.00,,,0.00,WeatherCatV1.15B25,2013-07-07 09:30:00,
2013-07-07 04:35:00,64.5,63.0,29.98,NNW,344,0.0,0.0,95,0.00,,,0.00,WeatherCatV1.15B25,2013-07-07 09:35:00,
2013-07-07 04:40:00,64.4,62.9,29.98,NNW,344,0.0,0.0,95,0.00,,,0.00,WeatherCatV1.15B25,2013-07-07 09:40:00,
2013-07-07 04:45:00,64.4,62.9,29.98,NNW,344,0.0,0.0,95,0.00,,,0.00,WeatherCatV1.15B25,2013-07-07 09:45:00,
2013-07-07 04:50:00,64.3,62.8,29.98,NNW,344,0.0,0.0,95,0.00,,,0.00,WeatherCatV1.15B25,2013-07-07 09:50:00,
2013-07-07 04:55:00,64.3,62.8,29.98,NNW,344,0.0,0.0,95,0.00,,,0.00,WeatherCatV1.15B25,2013-07-07 09:55:00,
2013-07-07 05:00:00,64.3,62.8,29.98,NNW,344,0.0,0.0,95,0.00,,,0.00,WeatherCatV1.15B25,2013-07-07 10:00:00,
2013-07-07 05:05:00,64.3,63.1,29.98,NNW,344,0.0,0.0,96,0.00,,,0.00,WeatherCatV1.15B25,2013-07-07 10:05:00,
2013-07-07 05:10:00,64.3,63.1,29.98,NNW,344,1.0,1.0,96,0.00,,,0.00,WeatherCatV1.15B25,2013-07-07 10:10:00,
2013-07-07 05:15:00,64.4,63.2,29.98,SE,138,1.0,2.0,96,0.00,,,0.00,WeatherCatV1.15B25,2013-07-07 10:15:00,
2013-07-07 05:20:00,64.4,63.2,29.98,SE,138,0.0,1.0,96,0.00,,,0.00,WeatherCatV1.15B25,2013-07-07 10:20:00,
2013-07-07 05:25:00,64.5,63.3,29.98,SSE,148,0.0,0.0,96,0.00,,,0.00,WeatherCatV1.15B25,2013-07-07 10:25:00,
2013-07-07 05:30:00,64.5,63.3,29.98,East,94,0.0,1.0,96,0.00,,,0.00,WeatherCatV1.15B25,2013-07-07 10:30:00,
2013-07-07 05:35:00,64.5,63.3,29.98,NE,46,0.0,1.0,96,0.00,,,0.00,WeatherCatV1.15B25,2013-07-07 10:35:00,
2013-07-07 05:40:00,64.6,63.4,29.99,NE,44,0.0,1.0,96,0.00,,,0.00,WeatherCatV1.15B25,2013-07-07 10:40:00,
2013-07-07 05:45:00,64.6,63.4,29.99,SSW,209,0.0,1.0,96,0.00,,,0.00,WeatherCatV1.15B25,2013-07-07 10:45:00,
2013-07-07 05:50:00,64.6,63.4,29.99,SSW,209,0.0,1.0,96,0.00,,,0.00,WeatherCatV1.15B25,2013-07-07 10:50:00,
2013-07-07 05:55:00,64.7,63.5,29.99,SSW,209,1.0,1.0,96,0.00,,,0.00,WeatherCatV1.15B25,2013-07-07 10:55:00,
2013-07-07 06:00:00,64.7,63.5,29.99,East,101,0.0,1.0,96,0.00,,,0.00,WeatherCatV1.15B25,2013-07-07 11:00:00,
2013-07-07 06:05:00,64.8,63.6,30.00,ESE,112,1.0,1.0,96,0.00,,,0.00,WeatherCatV1.15B25,2013-07-07 11:05:00,
2013-07-07 06:10:00,64.8,63.6,30.00,South,176,0.0,2.0,96,0.00,,,0.00,WeatherCatV1.15B25,2013-07-07 11:10:00,
2013-07-07 06:15:00,64.9,63.7,30.00,South,175,0.0,1.0,96,0.00,,,0.00,WeatherCatV1.15B25,2013-07-07 11:15:00,
2013-07-07 06:20:00,65.0,63.8,30.00,South,176,0.0,1.0,96,0.00,,,0.00,WeatherCatV1.15B25,2013-07-07 11:20:00,
2013-07-07 06:25:00,65.1,64.2,30.00,South,176,0.0,0.0,97,0.00,,,0.00,WeatherCatV1.15B25,2013-07-07 11:25:00,
2013-07-07 06:30:00,65.2,64.3,30.00,South,171,0.0,1.0,97,0.00,,,0.00,WeatherCatV1.15B25,2013-07-07 11:30:00,
2013-07-07 06:35:00,65.3,64.4,30.00,SSE,165,0.0,1.0,97,0.00,,,0.00,WeatherCatV1.15B25,2013-07-07 11:35:00,
2013-07-07 06:40:00,65.4,64.5,30.00,SSE,161,1.0,2.0,97,0.00,,,0.00,WeatherCatV1.15B25,2013-07-07 11:40:00,
2013-07-07 06:45:00,65.6,64.7,30.00,SE,131,1.0,1.0,97,0.00,,,0.00,WeatherCatV1.15B25,2013-07-07 11:45:00,
2013-07-07 06:50:00,65.8,64.9,30.00,SE,131,0.0,0.0,97,0.00,,,0.00,WeatherCatV1.15B25,2013-07-07 11:50:00,
2013-07-07 06:55:00,66.1,65.2,30.01,SE,131,0.0,1.0,97,0.00,,,0.00,WeatherCatV1.15B25,2013-07-07 11:55:00,
2013-07-07 07:00:00,66.5,65.6,30.01,SSE,159,0.0,1.0,97,0.00,,,0.00,WeatherCatV1.15B25,2013-07-07 12:00:00,
2013-07-07 07:05:00,66.9,66.0,30.01,South,175,0.0,2.0,97,0.00,,,0.00,WeatherCatV1.15B25,2013-07-07 12:05:00,
2013-07-07 07:10:00,67.3,66.4,30.01,SSE,168,0.0,2.0,97,0.00,,,0.00,WeatherCatV1.15B25,2013-07-07 12:10:00,
2013-07-07 07:15:00,67.7,66.8,30.02,SE,142,0.0,1.0,97,0.00,,,0.00,WeatherCatV1.15B25,2013-07-07 12:15:00,
2013-07-07 07:20:00,68.2,67.0,30.02,ESE,117,1.0,2.0,96,0.00,,,0.00,WeatherCatV1.15B25,2013-07-07 12:20:00,
2013-07-07 07:25:00,68.7,67.5,30.02,SSE,153,1.0,2.0,96,0.00,,,0.00,WeatherCatV1.15B25,2013-07-07 12:25:00,
2013-07-07 07:30:00,69.2,68.0,30.02,SSE,153,0.0,3.0,96,0.00,,,0.00,WeatherCatV1.15B25,2013-07-07 12:30:00,
2013-07-07 07:35:00,69.7,68.2,30.02,South,174,2.0,4.0,95,0.00,,,0.00,WeatherCatV1.15B25,2013-07-07 12:35:00,
2013-07-07 07:40:00,70.1,68.3,30.02,SE,144,1.0,4.0,94,0.00,,,0.00,WeatherCatV1.15B25,2013-07-07 12:40:00,
2013-07-07 07:45:00,70.5,68.4,30.02,SE,133,2.0,3.0,93,0.00,,,0.00,WeatherCatV1.15B25,2013-07-07 12:45:00,
2013-07-07 07:50:00,71.0,68.6,30.02,South,182,0.0,4.0,92,0.00,,,0.00,WeatherCatV1.15B25,2013-07-07 12:50:00,
2013-07-07 07:55:00,71.5,68.7,30.02,South,172,0.0,2.0,91,0.00,,,0.00,WeatherCatV1.15B25,2013-07-07 12:55:00,
2013-07-07 08:00:00,72.0,68.9,30.02,SSE,152,2.0,5.0,90,0.00,,,0.00,WeatherCatV1.15B25,2013-07-07 13:00:00,
2013-07-07 08:05:00,72.5,69.4,30.02,SSE,163,0.0,1.0,90,0.00,,,0.00,WeatherCatV1.15B25,2013-07-07 13:05:00,
2013-07-07 08:10:00,73.0,69.2,30.02,South,176,2.0,5.0,88,0.00,,,0.00,WeatherCatV1.15B25,2013-07-07 13:10:00,
2013-07-07 08:15:00,73.4,69.3,30.03,South,185,1.0,2.0,87,0.00,,,0.00,WeatherCatV1.15B25,2013-07-07 13:15:00,
2013-07-07 08:20:00,73.9,69.4,30.03,SE,140,0.0,4.0,86,0.00,,,0.00,WeatherCatV1.15B25,2013-07-07 13:20:00,
2013-07-07 08:25:00,74.3,69.1,30.03,South,183,1.0,6.0,84,0.00,,,0.00,WeatherCatV1.15B25,2013-07-07 13:25:00,
2013-07-07 08:30:00,74.8,69.6,30.03,SSE,157,0.0,4.0,84,0.00,,,0.00,WeatherCatV1.15B25,2013-07-07 13:30:00,
2013-07-07 08:35:00,75.3,70.1,30.03,West,277,1.0,1.0,84,0.00,,,0.00,WeatherCatV1.15B25,2013-07-07 13:35:00,
2013-07-07 08:40:00,75.8,69.9,30.03,SSW,194,3.0,5.0,82,0.00,,,0.00,WeatherCatV1.15B25,2013-07-07 13:40:00,
2013-07-07 08:45:00,76.3,70.0,30.03,SSE,148,4.0,5.0,81,0.00,,,0.00,WeatherCatV1.15B25,2013-07-07 13:45:00,
2013-07-07 08:50:00,76.6,69.6,30.03,South,191,1.0,5.0,79,0.00,,,0.00,WeatherCatV1.15B25,2013-07-07 13:50:00,
2013-07-07 08:55:00,77.0,70.0,30.03,SSE,167,1.0,4.0,79,0.00,,,0.00,WeatherCatV1.15B25,2013-07-07 13:55:00,
2013-07-07 09:00:00,77.4,70.0,30.03,South,178,3.0,4.0,78,0.00,,,0.00,WeatherCatV1.15B25,2013-07-07 14:00:00,
2013-07-07 09:05:00,77.8,70.0,30.03,SSW,213,3.0,5.0,77,0.00,,,0.00,WeatherCatV1.15B25,2013-07-07 14:05:00,
2013-07-07 09:10:00,78.2,70.4,30.03,South,170,4.0,4.0,77,0.00,,,0.00,WeatherCatV1.15B25,2013-07-07 14:10:00,
2013-07-07 09:15:00,78.6,70.4,30.03,SE,127,3.0,3.0,76,0.00,,,0.00,WeatherCatV1.15B25,2013-07-07 14:15:00,
2013-07-07 09:20:00,78.9,70.3,30.04,South,183,3.0,5.0,75,0.00,,,0.00,WeatherCatV1.15B25,2013-07-07 14:20:00,
2013-07-07 09:25:00,79.2,69.8,30.03,SE,128,2.0,5.0,73,0.00,,,0.00,WeatherCatV1.15B25,2013-07-07 14:25:00,
2013-07-07 09:30:00,79.5,70.5,30.03,SW,215,2.0,3.0,74,0.00,,,0.00,WeatherCatV1.15B25,2013-07-07 14:30:00,
2013-07-07 09:35:00,80.0,70.5,30.03,SW,221,0.0,4.0,73,0.00,,,0.00,WeatherCatV1.15B25,2013-07-07 14:35:00,
2013-07-07 09:40:00,80.3,70.0,30.03,SE,143,5.0,5.0,71,0.00,,,0.00,WeatherCatV1.15B25,2013-07-07 14:40:00,
2013-07-07 09:45:00,80.7,70.8,30.03,SW,236,2.0,6.0,72,0.00,,,0.00,WeatherCatV1.15B25,2013-07-07 14:45:00,
2013-07-07 09:50:00,81.1,70.8,30.03,SSW,200,2.0,3.0,71,0.00,,,0.00,WeatherCatV1.15B25,2013-07-07 14:50:00,
2013-07-07 09:55:00,81.4,70.7,30.03,SW,227,3.0,3.0,70,0.00,,,0.00,WeatherCatV1.15B25,2013-07-07 14:55:00,
2013-07-07 10:00:00,81.9,71.1,30.03,SW,221,2.0,3.0,70,0.00,,,0.00,WeatherCatV1.15B25,2013-07-07 15:00:00,
2013-07-07 10:05:00,82.2,70.6,30.03,South,185,2.0,4.0,68,0.00,,,0.00,WeatherCatV1.15B25,2013-07-07 15:05:00,
2013-07-07 10:10:00,82.5,70.8,30.03,ESE,123,5.0,7.0,68,0.00,,,0.00,WeatherCatV1.15B25,2013-07-07 15:10:00,
2013-07-07 10:15:00,82.6,70.5,30.03,SSE,167,1.0,5.0,67,0.00,,,0.00,WeatherCatV1.15B25,2013-07-07 15:15:00,
2013-07-07 10:20:00,83.1,71.4,30.03,SW,225,1.0,2.0,68,0.00,,,0.00,WeatherCatV1.15B25,2013-07-07 15:20:00,
2013-07-07 10:25:00,83.5,71.8,30.03,South,175,2.0,3.0,68,0.00,,,0.00,WeatherCatV1.15B25,2013-07-07 15:25:00,
2013-07-07 10:30:00,83.8,70.8,30.03,SSE,152,3.0,4.0,65,0.00,,,0.00,WeatherCatV1.15B25,2013-07-07 15:30:00,
2013-07-07 10:35:00,83.7,70.7,30.03,SSW,193,3.0,3.0,65,0.00,,,0.00,WeatherCatV1.15B25,2013-07-07 15:35:00,
2013-07-07 10:40:00,83.8,70.8,30.03,SSE,164,3.0,4.0,65,0.00,,,0.00,WeatherCatV1.15B25,2013-07-07 15:40:00,
2013-07-07 10:45:00,83.9,70.8,30.03,SE,126,5.0,7.0,65,0.00,,,0.00,WeatherCatV1.15B25,2013-07-07 15:45:00,
2013-07-07 10:50:00,83.9,70.8,30.03,SSE,161,3.0,9.0,65,0.00,,,0.00,WeatherCatV1.15B25,2013-07-07 15:50:00,
2013-07-07 10:55:00,84.1,70.6,30.03,South,180,1.0,6.0,64,0.00,,,0.00,WeatherCatV1.15B25,2013-07-07 15:55:00,
2013-07-07 11:00:00,84.3,70.3,30.03,South,185,3.0,8.0,63,0.00,,,0.00,WeatherCatV1.15B25,2013-07-07 16:00:00,
2013-07-07 11:05:00,84.4,70.4,30.03,SSE,164,3.0,8.0,63,0.00,,,0.00,WeatherCatV1.15B25,2013-07-07 16:05:00,
2013-07-07 11:10:00,84.5,70.0,30.03,South,173,5.0,5.0,62,0.00,,,0.00,WeatherCatV1.15B25,2013-07-07 16:10:00,
2013-07-07 11:15:00,84.6,70.1,30.03,SE,143,5.0,5.0,62,0.00,,,0.00,WeatherCatV1.15B25,2013-07-07 16:15:00,
2013-07-07 11:20:00,84.5,69.5,30.03,SE,128,2.0,6.0,61,0.00,,,0.00,WeatherCatV1.15B25,2013-07-07 16:20:00,
2013-07-07 11:25:00,84.8,69.8,30.03,South,180,4.0,7.0,61,0.00,,,0.00,WeatherCatV1.15B25,2013-07-07 16:25:00,
2013-07-07 11:30:00,85.0,69.0,30.03,South,175,3.0,7.0,59,0.00,,,0.00,WeatherCatV1.15B25,2013-07-07 16:30:00,
2013-07-07 11:35:00,85.4,68.9,30.03,South,171,0.0,7.0,58,0.00,,,0.00,WeatherCatV1.15B25,2013-07-07 16:35:00,
2013-07-07 11:40:00,85.8,68.8,30.03,SW,231,6.0,6.0,57,0.00,,,0.00,WeatherCatV1.15B25,2013-07-07 16:40:00,
2013-07-07 11:45:00,86.1,69.1,30.03,SSE,152,2.0,7.0,57,0.00,,,0.00,WeatherCatV1.15B25,2013-07-07 16:45:00,
2013-07-07 11:50:00,86.4,68.3,30.03,SE,133,3.0,6.0,55,0.00,,,0.00,WeatherCatV1.15B25,2013-07-07 16:50:00,
2013-07-07 11:55:00,86.3,68.7,30.02,SSE,152,3.0,6.0,56,0.00,,,0.00,WeatherCatV1.15B25,2013-07-07 16:55:00,
2013-07-07 12:00:00,86.1,67.5,30.02,SSE,158,6.0,8.0,54,0.00,,,0.00,WeatherCatV1.15B25,2013-07-07 17:00:00,
2013-07-07 12:05:00,86.1,67.5,30.02,South,177,2.0,5.0,54,0.00,,,0.00,WeatherCatV1.15B25,2013-07-07 17:05:00,
2013-07-07 12:10:00,86.3,68.2,30.02,SE,146,4.0,7.0,55,0.00,,,0.00,WeatherCatV1.15B25,2013-07-07 17:10:00,
2013-07-07 12:15:00,86.6,67.4,30.02,South,183,1.0,6.0,53,0.00,,,0.00,WeatherCatV1.15B25,2013-07-07 17:15:00,
2013-07-07 12:20:00,86.6,67.9,30.02,SSW,199,6.0,11.0,54,0.00,,,0.00,WeatherCatV1.15B25,2013-07-07 17:20:00,
2013-07-07 12:25:00,87.0,67.8,30.02,SSE,153,0.0,7.0,53,0.00,,,0.00,WeatherCatV1.15B25,2013-07-07 17:25:00,
2013-07-07 12:30:00,87.4,67.6,30.02,South,187,1.0,5.0,52,0.00,,,0.00,WeatherCatV1.15B25,2013-07-07 17:30:00,
2013-07-07 12:35:00,87.7,67.9,30.02,SSE,147,1.0,8.0,52,0.00,,,0.00,WeatherCatV1.15B25,2013-07-07 17:35:00,
2013-07-07 12:40:00,87.9,67.5,30.02,ESE,113,5.0,10.0,51,0.00,,,0.00,WeatherCatV1.15B25,2013-07-07 17:40:00,
2013-07-07 12:45:00,87.8,67.4,30.02,SE,142,4.0,9.0,51,0.00,,,0.00,WeatherCatV1.15B25,2013-07-07 17:45:00,
2013-07-07 12:50:00,88.1,67.1,30.02,SSE,166,4.0,6.0,50,0.00,,,0.00,WeatherCatV1.15B25,2013-07-07 17:50:00,
2013-07-07 12:55:00,88.2,68.3,30.02,South,178,2.0,4.0,52,0.00,,,0.00,WeatherCatV1.15B25,2013-07-07 17:55:00,
2013-07-07 13:00:00,88.3,67.3,30.01,SSE,159,7.0,8.0,50,0.00,,,0.00,WeatherCatV1.15B25,2013-07-07 18:00:00,
2013-07-07 13:05:00,88.3,66.7,30.02,South,171,3.0,9.0,49,0.00,,,0.00,WeatherCatV1.15B25,2013-07-07 18:05:00,
2013-07-07 13:10:00,88.2,67.2,30.01,SSW,212,6.0,8.0,50,0.00,,,0.00,WeatherCatV1.15B25,2013-07-07 18:10:00,
2013-07-07 13:15:00,88.0,65.8,30.01,ESE,121,1.0,7.0,48,0.00,,,0.00,WeatherCatV1.15B25,2013-07-07 18:15:00,
2013-07-07 13:20:00,88.0,65.8,30.01,South,182,3.0,5.0,48,0.00,,,0.00,WeatherCatV1.15B25,2013-07-07 18:20:00,
2013-07-07 13:25:00,88.3,66.7,30.01,South,173,5.0,6.0,49,0.00,,,0.00,WeatherCatV1.15B25,2013-07-07 18:25:00,
2013-07-07 13:30:00,88.8,65.9,30.01,West,265,6.0,6.0,47,0.00,,,0.00,WeatherCatV1.15B25,2013-07-07 18:30:00,
2013-07-07 13:35:00,89.2,66.9,30.01,SSW,202,5.0,8.0,48,0.00,,,0.00,WeatherCatV1.15B25,2013-07-07 18:35:00,
2013-07-07 13:40:00,89.0,66.1,30.01,SSW,213,4.0,4.0,47,0.00,,,0.00,WeatherCatV1.15B25,2013-07-07 18:40:00,
2013-07-07 13:45:00,89.2,66.3,30.00,South,184,4.0,6.0,47,0.00,,,0.00,WeatherCatV1.15B25,2013-07-07 18:45:00,
2013-07-07 13:50:00,89.2,65.0,30.00,South,190,3.0,9.0,45,0.00,,,0.00,WeatherCatV1.15B25,2013-07-07 18:50:00,
2013-07-07 13:55:00,89.0,66.1,30.00,SE,140,6.0,9.0,47,0.00,,,0.00,WeatherCatV1.15B25,2013-07-07 18:55:00,
2013-07-07 14:00:00,88.8,66.5,30.00,SSE,153,5.0,10.0,48,0.00,,,0.00,WeatherCatV1.15B25,2013-07-07 19:00:00,
2013-07-07 14:05:00,89.2,66.3,30.00,South,175,5.0,6.0,47,0.00,,,0.00,WeatherCatV1.15B25,2013-07-07 19:05:00,
2013-07-07 14:10:00,89.6,65.4,30.00,SW,227,7.0,8.0,45,0.00,,,0.00,WeatherCatV1.15B25,2013-07-07 19:10:00,
2013-07-07 14:15:00,89.9,66.3,30.00,SE,143,3.0,6.0,46,0.00,,,0.00,WeatherCatV1.15B25,2013-07-07 19:15:00,
2013-07-07 14:20:00,89.8,65.6,30.00,SE,134,2.0,10.0,45,0.00,,,0.00,WeatherCatV1.15B25,2013-07-07 19:20:00,
2013-07-07 14:25:00,89.7,64.8,30.00,ESE,117,3.0,5.0,44,0.00,,,0.00,WeatherCatV1.15B25,2013-07-07 19:25:00,
2013-07-07 14:30:00,90.2,64.6,29.99,SE,137,4.0,9.0,43,0.00,,,0.00,WeatherCatV1.15B25,2013-07-07 19:30:00,
2013-07-07 14:35:00,90.6,65.7,29.99,South,169,2.0,8.0,44,0.00,,,0.00,WeatherCatV1.15B25,2013-07-07 19:35:00,
2013-07-07 14:40:00,90.2,64.0,29.99,SSW,210,1.0,7.0,42,0.00,,,0.00,WeatherCatV1.15B25,2013-07-07 19:40:00,
2013-07-07 14:45:00,90.6,65.7,29.99,SSW,198,6.0,6.0,44,0.00,,,0.00,WeatherCatV1.15B25,2013-07-07 19:45:00,
2013-07-07 14:50:00,90.5,62.1,29.99,South,180,2.0,6.0,39,0.00,,,0.00,WeatherCatV1.15B25,2013-07-07 19:50:00,
2013-07-07 14:55:00,90.8,63.8,29.99,SE,140,2.0,5.0,41,0.00,,,0.00,WeatherCatV1.15B25,2013-07-07 19:55:00,
2013-07-07 15:00:00,90.8,62.4,29.99,SE,139,6.0,8.0,39,0.00,,,0.00,WeatherCatV1.15B25,2013-07-07 20:00:00,
2013-07-07 15:05:00,91.1,63.4,29.99,South,182,8.0,8.0,40,0.00,,,0.00,WeatherCatV1.15B25,2013-07-07 20:05:00,
2013-07-07 15:10:00,91.4,62.9,29.99,SSW,208,2.0,5.0,39,0.00,,,0.00,WeatherCatV1.15B25,2013-07-07 20:10:00,
2013-07-07 15:15:00,91.5,61.5,29.98,SSE,147,4.0,7.0,37,0.00,,,0.00,WeatherCatV1.15B25,2013-07-07 20:15:00,
2013-07-07 15:20:00,91.4,62.9,29.98,South,184,5.0,10.0,39,0.00,,,0.00,WeatherCatV1.15B25,2013-07-07 20:20:00,
2013-07-07 15:25:00,91.4,63.6,29.99,SE,146,5.0,8.0,40,0.00,,,0.00,WeatherCatV1.15B25,2013-07-07 20:25:00,
2013-07-07 15:30:00,91.5,63.7,29.98,ESE,119,2.0,7.0,40,0.00,,,0.00,WeatherCatV1.15B25,2013-07-07 20:30:00,
2013-07-07 15:35:00,91.8,64.7,29.98,South,186,4.0,8.0,41,0.00,,,0.00,WeatherCatV1.15B25,2013-07-07 20:35:00,
2013-07-07 15:40:00,91.6,63.8,29.98,SE,132,5.0,6.0,40,0.00,,,0.00,WeatherCatV1.15B25,2013-07-07 20:40:00,
2013-07-07 15:45:00,91.3,63.5,29.98,SSW,202,1.0,6.0,40,0.00,,,0.00,WeatherCatV1.15B25,2013-07-07 20:45:00,
2013-07-07 15:50:00,91.5,62.3,29.98,South,188,2.0,8.0,38,0.00,,,0.00,WeatherCatV1.15B25,2013-07-07 20:50:00,
2013-07-07 15:55:00,91.6,63.8,29.98,SSW,205,4.0,6.0,40,0.00,,,0.00,WeatherCatV1.15B25,2013-07-07 20:55:00,
2013-07-07 16:00:00,91.7,63.2,29.98,SW,217,3.0,7.0,39,0.00,,,0.00,WeatherCatV1.15B25,2013-07-07 21:00:00,
2013-07-07 16:05:00,91.7,62.4,29.97,SSE,150,5.0,6.0,38,0.00,,,0.00,WeatherCatV1.15B25,2013-07-07 21:05:00,
2013-07-07 16:10:00,91.6,62.3,29.97,SSW,193,4.0,8.0,38,0.00,,,0.00,WeatherCatV1.15B25,2013-07-07 21:10:00,
2013-07-07 16:15:00,91.6,62.3,29.97,SSE,157,7.0,7.0,38,0.00,,,0.00,WeatherCatV1.15B25,2013-07-07 21:15:00,
2013-07-07 16:20:00,91.6,63.1,29.97,South,186,5.0,7.0,39,0.00,,,0.00,WeatherCatV1.15B25,2013-07-07 21:20:00,
2013-07-07 16:25:00,91.5,63.7,29.97,South,171,3.0,6.0,40,0.00,,,0.00,WeatherCatV1.15B25,2013-07-07 21:25:00,
2013-07-07 16:30:00,91.7,63.9,29.97,South,173,1.0,3.0,40,0.00,,,0.00,WeatherCatV1.15B25,2013-07-07 21:30:00,
2013-07-07 16:35:00,91.7,62.4,29.97,SSW,196,5.0,6.0,38,0.00,,,0.00,WeatherCatV1.15B25,2013-07-07 21:35:00,
2013-07-07 16:40:00,91.8,62.5,29.97,South,185,4.0,8.0,38,0.00,,,0.00,WeatherCatV1.15B25,2013-07-07 21:40:00,
2013-07-07 16:45:00,91.9,64.1,29.97,SSW,195,5.0,6.0,40,0.00,,,0.00,WeatherCatV1.15B25,2013-07-07 21:45:00,
2013-07-07 16:50:00,91.8,63.3,29.97,SE,126,3.0,5.0,39,0.00,,,0.00,WeatherCatV1.15B25,2013-07-07 21:50:00,
2013-07-07 16:55:00,91.7,61.7,29.97,SSE,158,3.0,7.0,37,0.00,,,0.00,WeatherCatV1.15B25,2013-07-07 21:55:00,
2013-07-07 17:00:00,91.8,62.5,29.97,South,181,4.0,8.0,38,0.00,,,0.00,WeatherCatV1.15B25,2013-07-07 22:00:00,
2013-07-07 17:05:00,91.3,62.8,29.97,South,184,3.0,6.0,39,0.00,,,0.00,WeatherCatV1.15B25,2013-07-07 22:05:00,
2013-07-07 17:10:00,91.2,64.2,29.97,ESE,105,2.0,5.0,41,0.00,,,0.00,WeatherCatV1.15B25,2013-07-07 22:10:00,
2013-07-07 17:15:00,91.2,64.2,29.97,SW,222,0.0,5.0,41,0.00,,,0.00,WeatherCatV1.15B25,2013-07-07 22:15:00,
2013-07-07 17:20:00,91.2,64.9,29.97,SSW,195,1.0,4.0,42,0.00,,,0.00,WeatherCatV1.15B25,2013-07-07 22:20:00,
2013-07-07 17:25:00,91.3,66.3,29.97,South,174,4.0,7.0,44,0.00,,,0.00,WeatherCatV1.15B25,2013-07-07 22:25:00,
2013-07-07 17:30:00,91.2,67.5,29.97,SE,140,9.0,9.0,46,0.00,,,0.00,WeatherCatV1.15B25,2013-07-07 22:30:00,
2013-07-07 17:35:00,90.7,65.1,29.96,SSW,205,1.0,4.0,43,0.00,,,0.00,WeatherCatV1.15B25,2013-07-07 22:35:00,
2013-07-07 17:40:00,90.6,65.0,29.96,ESE,123,4.0,8.0,43,0.00,,,0.00,WeatherCatV1.15B25,2013-07-07 22:40:00,
2013-07-07 17:45:00,90.4,64.8,29.96,ESE,111,2.0,6.0,43,0.00,,,0.00,WeatherCatV1.15B25,2013-07-07 22:45:00,
2013-07-07 17:50:00,90.3,65.4,29.96,SSE,166,4.0,6.0,44,0.00,,,0.00,WeatherCatV1.15B25,2013-07-07 22:50:00,
2013-07-07 17:55:00,90.1,64.5,29.96,SSE,152,4.0,6.0,43,0.00,,,0.00,WeatherCatV1.15B25,2013-07-07 22:55:00,
2013-07-07 18:00:00,89.7,64.2,29.96,South,178,3.0,8.0,43,0.00,,,0.00,WeatherCatV1.15B25,2013-07-07 23:00:00,
2013-07-07 18:05:00,89.5,64.7,29.96,SSE,150,1.0,5.0,44,0.00,,,0.00,WeatherCatV1.15B25,2013-07-07 23:05:00,
2013-07-07 18:10:00,89.4,65.2,29.96,SSW,192,0.0,6.0,45,0.00,,,0.00,WeatherCatV1.15B25,2013-07-07 23:10:00,
2013-07-07 18:15:00,89.4,65.2,29.96,South,174,0.0,3.0,45,0.00,,,0.00,WeatherCatV1.15B25,2013-07-07 23:15:00,
2013-07-07 18:20:00,89.3,64.5,29.96,ESE,123,3.0,8.0,44,0.00,,,0.00,WeatherCatV1.15B25,2013-07-07 23:20:00,
2013-07-07 18:25:00,89.1,64.3,29.96,ESE,119,1.0,6.0,44,0.00,,,0.00,WeatherCatV1.15B25,2013-07-07 23:25:00,
2013-07-07 18:30:00,88.9,64.8,29.96,South,179,4.0,6.0,45,0.00,,,0.00,WeatherCatV1.15B25,2013-07-07 23:30:00,
2013-07-07 18:35:00,88.8,64.0,29.96,ESE,111,5.0,5.0,44,0.00,,,0.00,WeatherCatV1.15B25,2013-07-07 23:35:00,
2013-07-07 18:40:00,88.4,64.3,29.96,SE,128,0.0,7.0,45,0.00,,,0.00,WeatherCatV1.15B25,2013-07-07 23:40:00,
2013-07-07 18:45:00,88.1,64.7,29.97,SSW,204,2.0,4.0,46,0.00,,,0.00,WeatherCatV1.15B25,2013-07-07 23:45:00,
2013-07-07 18:50:00,88.0,65.2,29.96,SE,141,0.0,4.0,47,0.00,,,0.00,WeatherCatV1.15B25,2013-07-07 23:50:00,
2013-07-07 18:55:00,87.8,64.4,29.97,South,178,2.0,3.0,46,0.00,,,0.00,WeatherCatV1.15B25,2013-07-07 23:55:00,
2013-07-07 19:00:00,87.5,64.1,29.97,SSE,158,4.0,5.0,46,0.00,,,0.00,WeatherCatV1.15B25,2013-07-08 00:00:00,
2013-07-07 19:05:00,87.2,64.5,29.96,SSE,147,2.0,5.0,47,0.00,,,0.00,WeatherCatV1.15B25,2013-07-08 00:05:00,
2013-07-07 19:10:00,86.8,64.1,29.96,SE,132,4.0,6.0,47,0.00,,,0.00,WeatherCatV1.15B25,2013-07-08 00:10:00,
2013-07-07 19:15:00,86.4,64.4,29.96,SE,136,4.0,4.0,48,0.00,,,0.00,WeatherCatV1.15B25,2013-07-08 00:15:00,
2013-07-07 19:20:00,86.1,64.1,29.96,SE,146,3.0,4.0,48,0.00,,,0.00,WeatherCatV1.15B25,2013-07-08 00:20:00,
2013-07-07 19:25:00,85.8,64.4,29.97,SE,125,2.0,2.0,49,0.00,,,0.00,WeatherCatV1.15B25,2013-07-08 00:25:00,
2013-07-07 19:30:00,85.5,64.1,29.97,SE,144,0.0,2.0,49,0.00,,,0.00,WeatherCatV1.15B25,2013-07-08 00:30:00,
2013-07-07 19:35:00,85.3,64.5,29.97,SE,144,1.0,5.0,50,0.00,,,0.00,WeatherCatV1.15B25,2013-07-08 00:35:00,
2013-07-07 19:40:00,85.0,64.2,29.97,SSE,160,1.0,4.0,50,0.00,,,0.00,WeatherCatV1.15B25,2013-07-08 00:40:00,
2013-07-07 19:45:00,84.8,64.1,29.97,SSE,167,1.0,3.0,50,0.00,,,0.00,WeatherCatV1.15B25,2013-07-08 00:45:00,
2013-07-07 19:50:00,84.5,64.4,29.97,SE,129,2.0,4.0,51,0.00,,,0.00,WeatherCatV1.15B25,2013-07-08 00:50:00,
2013-07-07 19:55:00,84.3,64.7,29.97,SE,134,1.0,2.0,52,0.00,,,0.00,WeatherCatV1.15B25,2013-07-08 00:55:00,
2013-07-07 20:00:00,84.0,65.0,29.97,SSE,147,0.0,1.0,53,0.00,,,0.00,WeatherCatV1.15B25,2013-07-08 01:00:00,
2013-07-07 20:05:00,83.6,65.2,29.97,SE,144,1.0,3.0,54,0.00,,,0.00,WeatherCatV1.15B25,2013-07-08 01:05:00,
2013-07-07 20:10:00,83.4,65.0,29.97,SSE,160,0.0,2.0,54,0.00,,,0.00,WeatherCatV1.15B25,2013-07-08 01:10:00,
2013-07-07 20:15:00,83.1,65.2,29.97,South,171,0.0,1.0,55,0.00,,,0.00,WeatherCatV1.15B25,2013-07-08 01:15:00,
2013-07-07 20:20:00,82.8,65.0,29.98,South,171,1.0,2.0,55,0.00,,,0.00,WeatherCatV1.15B25,2013-07-08 01:20:00,
2013-07-07 20:25:00,82.4,64.6,29.98,SSE,155,1.0,3.0,55,0.00,,,0.00,WeatherCatV1.15B25,2013-07-08 01:25:00,
2013-07-07 20:30:00,82.2,64.4,29.98,South,171,0.0,1.0,55,0.00,,,0.00,WeatherCatV1.15B25,2013-07-08 01:30:00,
2013-07-07 20:35:00,81.9,65.1,29.98,South,171,0.0,1.0,57,0.00,,,0.00,WeatherCatV1.15B25,2013-07-08 01:35:00,
2013-07-07 20:40:00,81.6,64.9,29.98,South,171,1.0,2.0,57,0.00,,,0.00,WeatherCatV1.15B25,2013-07-08 01:40:00,
2013-07-07 20:45:00,81.2,65.0,29.98,SSE,148,0.0,2.0,58,0.00,,,0.00,WeatherCatV1.15B25,2013-07-08 01:45:00,
2013-07-07 20:50:00,81.0,65.3,29.98,SSE,148,0.0,1.0,59,0.00,,,0.00,WeatherCatV1.15B25,2013-07-08 01:50:00,
2013-07-07 20:55:00,80.6,64.9,29.98,SSE,148,1.0,2.0,59,0.00,,,0.00,WeatherCatV1.15B25,2013-07-08 01:55:00,
2013-07-07 21:00:00,80.2,65.0,29.98,SSE,148,1.0,1.0,60,0.00,,,0.00,WeatherCatV1.15B25,2013-07-08 02:00:00,
2013-07-07 21:05:00,79.8,65.6,29.99,SSE,148,0.0,0.0,62,0.00,,,0.00,WeatherCatV1.15B25,2013-07-08 02:05:00,
2013-07-07 21:10:00,79.4,65.2,29.99,SSE,148,0.0,1.0,62,0.00,,,0.00,WeatherCatV1.15B25,2013-07-08 02:10:00,
2013-07-07 21:15:00,79.0,65.3,29.99,SSE,148,0.0,1.0,63,0.00,,,0.00,WeatherCatV1.15B25,2013-07-08 02:15:00,
2013-07-07 21:20:00,78.7,65.0,29.99,SSE,148,0.0,0.0,63,0.00,,,0.00,WeatherCatV1.15B25,2013-07-08 02:20:00,
2013-07-07 21:25:00,78.2,65.0,29.99,SSE,148,0.0,0.0,64,0.00,,,0.00,WeatherCatV1.15B25,2013-07-08 02:25:00,
2013-07-07 21:30:00,77.8,65.5,30.00,SSE,148,0.0,0.0,66,0.00,,,0.00,WeatherCatV1.15B25,2013-07-08 02:30:00,
2013-07-07 21:35:00,77.4,65.6,30.00,SSE,148,0.0,0.0,67,0.00,,,0.00,WeatherCatV1.15B25,2013-07-08 02:35:00,
2013-07-07 21:40:00,76.9,65.9,30.00,SSE,148,0.0,0.0,69,0.00,,,0.00,WeatherCatV1.15B25,2013-07-08 02:40:00,
2013-07-07 21:45:00,76.4,65.9,30.00,SSE,148,0.0,0.0,70,0.00,,,0.00,WeatherCatV1.15B25,2013-07-08 02:45:00,
2013-07-07 21:50:00,76.0,65.9,30.00,SSE,148,0.0,0.0,71,0.00,,,0.00,WeatherCatV1.15B25,2013-07-08 02:50:00,
2013-07-07 21:55:00,75.6,65.5,30.00,SSE,148,0.0,0.0,71,0.00,,,0.00,WeatherCatV1.15B25,2013-07-08 02:55:00,
2013-07-07 22:00:00,75.3,65.2,30.00,SSE,148,0.0,0.0,71,0.00,,,0.00,WeatherCatV1.15B25,2013-07-08 03:00:00,
2013-07-07 22:05:00,74.9,64.8,30.01,SSE,148,0.0,0.0,71,0.00,,,0.00,WeatherCatV1.15B25,2013-07-08 03:05:00,
2013-07-07 22:10:00,74.7,65.1,30.01,SSE,148,0.0,0.0,72,0.00,,,0.00,WeatherCatV1.15B25,2013-07-08 03:10:00,
2013-07-07 22:15:00,74.4,65.6,30.01,SSE,148,0.0,0.0,74,0.00,,,0.00,WeatherCatV1.15B25,2013-07-08 03:15:00,
2013-07-07 22:20:00,74.0,65.2,30.01,SSE,148,0.0,0.0,74,0.00,,,0.00,WeatherCatV1.15B25,2013-07-08 03:20:00,
2013-07-07 22:25:00,73.7,65.3,30.01,SSE,148,0.0,0.0,75,0.00,,,0.00,WeatherCatV1.15B25,2013-07-08 03:25:00,
2013-07-07 22:30:00,73.3,65.3,30.01,SSE,148,0.0,0.0,76,0.00,,,0.00,WeatherCatV1.15B25,2013-07-08 03:30:00,
2013-07-07 22:35:00,73.1,65.1,30.01,SSE,148,0.0,0.0,76,0.00,,,0.00,WeatherCatV1.15B25,2013-07-08 03:35:00,
2013-07-07 22:40:00,72.9,65.3,30.01,SSE,148,0.0,0.0,77,0.00,,,0.00,WeatherCatV1.15B25,2013-07-08 03:40:00,
2013-07-07 22:45:00,72.7,65.4,30.02,SSE,148,0.0,0.0,78,0.00,,,0.00,WeatherCatV1.15B25,2013-07-08 03:45:00,
2013-07-07 22:50:00,72.5,65.2,30.02,SSE,148,0.0,0.0,78,0.00,,,0.00,WeatherCatV1.15B25,2013-07-08 03:50:00,
2013-07-07 22:55:00,72.2,64.9,30.02,SSE,148,0.0,1.0,78,0.00,,,0.00,WeatherCatV1.15B25,2013-07-08 03:55:00,
2013-07-07 23:00:00,72.0,65.1,30.02,SSE,148,0.0,0.0,79,0.00,,,0.00,WeatherCatV1.15B25,2013-07-08 04:00:00,
2013-07-07 23:01:00,72.0,65.1,30.02,SSE,148,0.0,0.0,79,0.00,,,0.00,WeatherCatV1.15B25,2013-07-08 04:01:00,
2013-07-07 23:06:00,71.9,65.0,30.02,SSE,148,0.0,0.0,79,0.00,,,0.00,WeatherCatV1.15B25,2013-07-08 04:06:00,
2013-07-07 23:11:00,71.7,64.8,30.02,SSE,148,0.0,0.0,79,0.00,,,0.00,WeatherCatV1.15B25,2013-07-08 04:11:00,
2013-07-07 23:16:00,71.5,64.6,30.02,SSE,148,0.0,0.0,79,0.00,,,0.00,WeatherCatV1.15B25,2013-07-08 04:16:00,
2013-07-07 23:21:00,71.4,64.9,30.02,SSE,148,0.0,0.0,80,0.00,,,0.00,WeatherCatV1.15B25,2013-07-08 04:21:00,
2013-07-07 23:26:00,71.3,65.2,30.02,SSE,148,0.0,0.0,81,0.00,,,0.00,WeatherCatV1.15B25,2013-07-08 04:26:00,
2013-07-07 23:31:00,71.2,65.1,30.02,SSE,148,0.0,0.0,81,0.00,,,0.00,WeatherCatV1.15B25,2013-07-08 04:31:00,
2013-07-07 23:36:00,71.0,64.9,30.02,SSE,148,0.0,0.0,81,0.00,,,0.00,WeatherCatV1.15B25,2013-07-08 04:36:00,
2013-07-07 23:41:00,71.0,64.9,30.02,SSE,148,0.0,0.0,81,0.00,,,0.00,WeatherCatV1.15B25,2013-07-08 04:41:00,
2013-07-07 23:46:00,70.9,64.8,30.02,SSE,148,0.0,0.0,81,0.00,,,0.00,WeatherCatV1.15B25,2013-07-08 04:46:00,
2013-07-07 23:51:00,70.8,65.0,30.02,SSE,148,0.0,0.0,82,0.00,,,0.00,WeatherCatV1.15B25,2013-07-08 04:51:00,
2013-07-07 23:56:00,70.8,65.0,30.03,SSE,148,0.0,1.0,82,0.00,,,0.00,WeatherCatV1.15B25,2013-07-08 04:56:00,